• In Romania
  • List of Countries
  • For 7 days
  • Water Temperature
  • Satellite Maps
  • Weather Map
  • Weather Widgets
  • user-avatar
    Login

    Hourly Weather Malanje

    Today, 28 March, Tuesday

    Time Temperature Precipitation Wind Pressure Humidity
    00:00 +22°C° 0.3 mm 1 mps 665 mmHg 90%
    01:00 +21°C° 0.3 mm 1 mps 665 mmHg 91%
    02:00 +21°C° 0.4 mm 1 mps 665 mmHg 92%
    03:00 +21°C° 0.4 mm 1 mps 665 mmHg 93%
    04:00 +18°C° 0.4 mm 0 mps 665 mmHg 94%
    05:00 +21°C° 0.6 mm 1 mps 665 mmHg 93%
    06:00 +21°C° 0.6 mm 1 mps 666 mmHg 93%
    07:00 +22°C° 0.6 mm 1 mps 666 mmHg 93%
    08:00 +22°C° 0.4 mm 1 mps 667 mmHg 91%
    09:00 +23°C° 0.4 mm 1 mps 667 mmHg 88%
    10:00 +24°C° 0.4 mm 1 mps 667 mmHg 85%
    11:00 +25°C° 0.3 mm 1 mps 667 mmHg 80%
    12:00 +26°C° 0.3 mm 1 mps 666 mmHg 74%
    13:00 +27°C° 0.3 mm 1 mps 666 mmHg 69%
    14:00 +27°C° 0.1 mm 1 mps 665 mmHg 69%
    15:00 +27°C° 0.1 mm 1 mps 665 mmHg 68%
    16:00 +28°C° 0.1 mm 1 mps 664 mmHg 68%
    17:00 +26°C° 0.1 mm 1 mps 664 mmHg 74%
    18:00 +24°C° 0.1 mm 1 mps 664 mmHg 80%
    19:00 +23°C° 0.1 mm 1 mps 664 mmHg 86%
    20:00 +23°C° 0.1 mm 1 mps 664 mmHg 86%
    21:00 +21°C° 0.1 mm 2 mps 665 mmHg 86%
    22:00 +21°C° 0.1 mm 2 mps 665 mmHg 86%
    23:00 +21°C° 0.1 mm 2 mps 665 mmHg 88%

    Tomorrow, 29 March, Wednesday

    Time Temperature Precipitation Wind Pressure Humidity
    00:00 +21°C° 0.1 mm 2 mps 665 mmHg 89%
    01:00 +21°C° 0.1 mm 2 mps 665 mmHg 91%
    02:00 +20°C° 0 mm 2 mps 664 mmHg 92%
    03:00 +20°C° 0 mm 2 mps 664 mmHg 93%
    04:00 +20°C° 0 mm 2 mps 664 mmHg 93%
    05:00 +20°C° 0 mm 2 mps 664 mmHg 92%
    06:00 +20°C° 0 mm 2 mps 664 mmHg 91%
    07:00 +21°C° 0 mm 2 mps 665 mmHg 90%
    08:00 +24°C° 0 mm 3 mps 665 mmHg 82%
    09:00 +26°C° 0 mm 4 mps 666 mmHg 73%
    10:00 +28°C° 0 mm 5 mps 666 mmHg 65%
    11:00 +29°C° 0.4 mm 5 mps 666 mmHg 64%
    12:00 +29°C° 0.4 mm 4 mps 665 mmHg 63%
    13:00 +30°C° 0.4 mm 4 mps 664 mmHg 62%
    14:00 +29°C° 0.7 mm 4 mps 664 mmHg 65%
    15:00 +29°C° 0.7 mm 3 mps 663 mmHg 68%
    16:00 +28°C° 0.7 mm 3 mps 663 mmHg 71%
    17:00 +26°C° 2.3 mm 3 mps 663 mmHg 78%
    18:00 +25°C° 2.3 mm 2 mps 663 mmHg 84%
    19:00 +23°C° 2.3 mm 2 mps 663 mmHg 91%
    20:00 +21°C° 3.5 mm 2 mps 664 mmHg 91%
    21:00 +21°C° 3.5 mm 2 mps 665 mmHg 92%
    22:00 +21°C° 3.5 mm 2 mps 665 mmHg 92%
    23:00 +21°C° 3.8 mm 2 mps 665 mmHg 93%

    Day after tomorrow, 30 March, Thursday

    Time Temperature Precipitation Wind Pressure Humidity
    00:00 +21°C° 3.8 mm 1 mps 665 mmHg 95%
    01:00 +21°C° 3.8 mm 1 mps 665 mmHg 96%
    02:00 +21°C° 1.5 mm 1 mps 664 mmHg 96%
    03:00 +21°C° 1.5 mm 1 mps 664 mmHg 97%
    04:00 +21°C° 1.5 mm 1 mps 664 mmHg 97%
    05:00 +21°C° 0.3 mm 1 mps 664 mmHg 96%
    06:00 +19°C° 0.3 mm 0 mps 665 mmHg 96%
    07:00 +19°C° 0.3 mm 0 mps 665 mmHg 95%
    08:00 +22°C° 0.2 mm 1 mps 666 mmHg 92%
    09:00 +23°C° 0.2 mm 1 mps 667 mmHg 88%
    10:00 +25°C° 0.2 mm 1 mps 667 mmHg 84%
    11:00 +25°C° 0.9 mm 2 mps 667 mmHg 82%
    12:00 +26°C° 0.9 mm 2 mps 666 mmHg 80%
    13:00 +26°C° 0.9 mm 2 mps 665 mmHg 78%
    14:00 +26°C° 1.4 mm 2 mps 665 mmHg 80%
    15:00 +26°C° 1.4 mm 2 mps 665 mmHg 83%
    16:00 +25°C° 1.4 mm 2 mps 664 mmHg 85%
    17:00 +24°C° 1.6 mm 2 mps 665 mmHg 88%
    18:00 +23°C° 1.6 mm 2 mps 665 mmHg 92%
    19:00 +21°C° 1.6 mm 2 mps 665 mmHg 96%
    20:00 +21°C° 0.3 mm 1 mps 666 mmHg 96%
    21:00 +21°C° 0.3 mm 1 mps 666 mmHg 96%
    22:00 +21°C° 0.3 mm 1 mps 666 mmHg 96%
    23:00 +18°C° 0.1 mm 0 mps 666 mmHg 96%

    31 March, Friday

    Time Temperature Precipitation Wind Pressure Humidity
    00:00 +18°C° 0.1 mm 0 mps 666 mmHg 96%
    01:00 +18°C° 0.1 mm 0 mps 665 mmHg 96%
    02:00 +20°C° 0.1 mm 1 mps 665 mmHg 96%
    03:00 +20°C° 0.1 mm 1 mps 665 mmHg 96%
    04:00 +20°C° 0.1 mm 1 mps 665 mmHg 96%
    05:00 +20°C° 0.4 mm 1 mps 665 mmHg 95%
    06:00 +21°C° 0.4 mm 1 mps 666 mmHg 95%
    07:00 +20°C° 0.4 mm 2 mps 667 mmHg 95%
    08:00 +21°C° 0 mm 2 mps 667 mmHg 89%
    09:00 +24°C° 0 mm 2 mps 668 mmHg 84%
    10:00 +25°C° 0 mm 3 mps 668 mmHg 78%
    11:00 +26°C° 0.5 mm 3 mps 668 mmHg 76%
    12:00 +26°C° 0.5 mm 3 mps 667 mmHg 74%
    13:00 +27°C° 0.5 mm 3 mps 666 mmHg 72%
    14:00 +26°C° 0.3 mm 3 mps 666 mmHg 74%
    15:00 +26°C° 0.3 mm 3 mps 666 mmHg 76%
    16:00 +25°C° 0.3 mm 3 mps 665 mmHg 78%
    17:00 +24°C° 0.1 mm 3 mps 665 mmHg 82%
    18:00 +21°C° 0.1 mm 3 mps 666 mmHg 86%
    19:00 +20°C° 0.1 mm 2 mps 666 mmHg 89%
    20:00 +19°C° 0 mm 2 mps 666 mmHg 91%
    21:00 +19°C° 0 mm 2 mps 666 mmHg 92%
    22:00 +18°C° 0 mm 2 mps 666 mmHg 93%
    23:00 +18°C° 0.1 mm 2 mps 666 mmHg 93%

    1 April, Saturday

    Time Temperature Precipitation Wind Pressure Humidity
    00:00 +18°C° 0.1 mm 2 mps 666 mmHg 94%
    01:00 +19°C° 0.1 mm 1 mps 665 mmHg 94%
    02:00 +19°C° 0.5 mm 1 mps 665 mmHg 95%
    03:00 +19°C° 0.5 mm 1 mps 665 mmHg 95%
    04:00 +19°C° 0.5 mm 1 mps 665 mmHg 95%
    05:00 +20°C° 0.1 mm 1 mps 665 mmHg 94%
    06:00 +20°C° 0.1 mm 1 mps 666 mmHg 93%
    07:00 +20°C° 0.1 mm 1 mps 666 mmHg 92%
    08:00 +21°C° 0.2 mm 2 mps 667 mmHg 86%
    09:00 +24°C° 0.2 mm 3 mps 667 mmHg 79%
    10:00 +26°C° 0.2 mm 4 mps 667 mmHg 73%
    11:00 +26°C° 0.3 mm 4 mps 667 mmHg 72%
    12:00 +27°C° 0.3 mm 3 mps 666 mmHg 71%
    13:00 +27°C° 0.3 mm 3 mps 665 mmHg 70%
    14:00 +27°C° 0.4 mm 3 mps 665 mmHg 71%
    15:00 +27°C° 0.4 mm 3 mps 664 mmHg 73%
    16:00 +27°C° 0.4 mm 3 mps 664 mmHg 74%
    17:00 +25°C° 0.3 mm 3 mps 664 mmHg 80%
    18:00 +24°C° 0.3 mm 3 mps 664 mmHg 86%
    19:00 +21°C° 0.3 mm 2 mps 665 mmHg 93%
    20:00 +21°C° 1.2 mm 2 mps 665 mmHg 93%
    21:00 +20°C° 1.2 mm 2 mps 665 mmHg 94%
    22:00 +20°C° 1.2 mm 2 mps 665 mmHg 94%
    23:00 +21°C° 1.9 mm 1 mps 665 mmHg 94%

    2 April, Sunday

    Time Temperature Precipitation Wind Pressure Humidity
    00:00 +21°C° 1.9 mm 1 mps 665 mmHg 94%
    01:00 +21°C° 1.9 mm 1 mps 664 mmHg 94%
    02:00 +20°C° 1.1 mm 1 mps 664 mmHg 94%
    03:00 +20°C° 1.1 mm 1 mps 664 mmHg 94%
    04:00 +20°C° 1.1 mm 1 mps 664 mmHg 94%
    05:00 +20°C° 0.1 mm 1 mps 665 mmHg 94%
    06:00 +21°C° 0.1 mm 1 mps 665 mmHg 93%
    07:00 +21°C° 0.1 mm 1 mps 666 mmHg 93%
    08:00 +23°C° 0.1 mm 2 mps 666 mmHg 87%
    09:00 +24°C° 0.1 mm 3 mps 666 mmHg 81%
    10:00 +25°C° 0.1 mm 3 mps 667 mmHg 75%
    11:00 +26°C° 0.3 mm 4 mps 666 mmHg 72%
    12:00 +27°C° 0.3 mm 4 mps 665 mmHg 69%
    13:00 +28°C° 0.3 mm 4 mps 665 mmHg 65%
    14:00 +27°C° 0.2 mm 4 mps 665 mmHg 68%
    15:00 +27°C° 0.2 mm 3 mps 664 mmHg 70%
    16:00 +27°C° 0.2 mm 3 mps 664 mmHg 72%
    17:00 +25°C° 0.3 mm 3 mps 664 mmHg 78%
    18:00 +24°C° 0.3 mm 2 mps 664 mmHg 83%
    19:00 +21°C° 0.3 mm 2 mps 664 mmHg 89%
    20:00 +20°C° 0.2 mm 2 mps 664 mmHg 90%
    21:00 +20°C° 0.2 mm 2 mps 664 mmHg 90%
    22:00 +20°C° 0.2 mm 2 mps 665 mmHg 91%
    23:00 +19°C° 0.7 mm 2 mps 664 mmHg 91%
    Show more